TimeEDT,TemperatureF,Dew PointF,Humidity,Sea Level PressureIn,VisibilityMPH,Wind Direction,Wind SpeedMPH,Gust SpeedMPH,PrecipitationIn,Events,Conditions,WindDirDegrees,DateUTC
12:54 AM,28.0,17.1,63,29.96,9.0,NW,11.5,21.9,0.00,Snow,Light Snow,320,2013-03-21 04:54:00
1:54 AM,26.6,15.8,64,29.93,9.0,NW,10.4,17.3,N/A,Snow,Light Snow,310,2013-03-21 05:54:00
2:40 AM,26.6,17.6,69,29.93,5.0,NNW,8.1,-,0.00,Snow,Light Snow,340,2013-03-21 06:40:00
2:54 AM,26.1,17.1,69,29.95,6.0,WNW,8.1,-,0.00,Snow,Light Snow,290,2013-03-21 06:54:00
3:13 AM,24.8,15.8,69,29.93,8.0,NNW,13.8,20.7,0.00,Snow,Light Snow,330,2013-03-21 07:13:00
3:54 AM,25.0,6.1,45,29.94,10.0,WNW,13.8,21.9,0.00,,Overcast,300,2013-03-21 07:54:00
4:54 AM,25.0,5.0,43,29.93,10.0,NW,9.2,18.4,N/A,,Overcast,320,2013-03-21 08:54:00
5:54 AM,24.1,6.1,46,29.93,10.0,Variable,4.6,-,N/A,,Mostly Cloudy,0,2013-03-21 09:54:00
6:54 AM,23.0,7.0,50,29.92,10.0,Calm,Calm,-,N/A,,Clear,0,2013-03-21 10:54:00
7:54 AM,23.0,8.1,53,29.93,10.0,WNW,3.5,-,N/A,,Mostly Cloudy,300,2013-03-21 11:54:00
8:54 AM,25.0,9.0,51,29.94,10.0,West,3.5,-,0.00,,Scattered Clouds,270,2013-03-21 12:54:00
9:54 AM,26.1,10.9,53,29.94,10.0,NW,10.4,16.1,N/A,,Mostly Cloudy,320,2013-03-21 13:54:00
10:54 AM,26.1,10.0,51,29.96,9.0,West,11.5,-,0.00,Snow,Light Snow,260,2013-03-21 14:54:00
11:54 AM,26.1,10.9,53,29.96,10.0,SW,10.4,-,0.00,,Mostly Cloudy,230,2013-03-21 15:54:00
12:10 PM,24.8,12.2,59,29.93,4.0,WNW,10.4,21.9,0.00,Snow,Light Snow,300,2013-03-21 16:10:00
12:54 PM,27.0,12.9,56,29.96,9.0,WSW,6.9,17.3,0.00,Snow,Light Snow,250,2013-03-21 16:54:00
1:21 PM,26.6,17.6,69,29.94,1.0,WNW,15.0,26.5,0.00,Snow,Light Snow,300,2013-03-21 17:21:00
1:37 PM,28.4,17.6,64,29.93,9.0,West,10.4,-,0.00,Snow,Light Snow,280,2013-03-21 17:37:00
1:54 PM,30.0,15.1,54,29.96,9.0,West,8.1,-,0.00,Snow,Light Snow,270,2013-03-21 17:54:00
2:54 PM,27.0,14.0,58,29.96,7.0,NW,18.4,28.8,0.00,Snow,Light Snow,310,2013-03-21 18:54:00
3:54 PM,30.0,12.9,49,29.97,9.0,WNW,11.5,18.4,0.00,,Mostly Cloudy,290,2013-03-21 19:54:00
4:54 PM,28.9,10.0,45,29.98,9.0,WNW,17.3,25.3,0.00,,Mostly Cloudy,290,2013-03-21 20:54:00
5:54 PM,28.9,12.0,49,29.99,10.0,WNW,15.0,25.3,0.00,,Mostly Cloudy,300,2013-03-21 21:54:00
6:54 PM,28.9,9.0,43,30.00,10.0,WNW,8.1,-,N/A,,Mostly Cloudy,290,2013-03-21 22:54:00
7:54 PM,28.0,9.0,45,30.01,10.0,Variable,5.8,-,N/A,,Scattered Clouds,0,2013-03-21 23:54:00
8:54 PM,27.0,8.1,45,30.02,10.0,West,4.6,-,N/A,,Partly Cloudy,270,2013-03-22 00:54:00
9:54 PM,27.0,7.0,43,30.04,10.0,WSW,5.8,-,N/A,,Clear,250,2013-03-22 01:54:00
10:54 PM,26.1,9.0,49,30.04,10.0,WSW,6.9,-,N/A,,Clear,240,2013-03-22 02:54:00
11:54 PM,24.1,10.9,57,30.05,10.0,Calm,Calm,-,N/A,,Clear,0,2013-03-22 03:54:00